Location: Helsinki
(60.1699°N, 24.9384°E)
Time: 19:46:09
(UTC+02:00)

Transit 4A - Pass Details

Date: 27 October 2020
Orbit: 862 x 982 km, 66.8° (Epoch: 30 November)

Event Time Altitude Azimuth Distance (km) Brightness Sun altitude
Rises 15:25:58 0° 185° (S) 3,610 11.8 6.5°
Reaches altitude 10° 15:28:44 10° 176° (S) 2,685 10.9 6.2°
Maximum altitude 15:34:10 32° 116° (ESE) 1,616 9.0 5.7°
Drops below altitude 10° 15:39:42 10° 56° (ENE) 2,742 9.7 5.1°
Sets 15:42:32 0° 47° (NE) 3,698 10.3 4.9°
